Home   Weather   Yonkers   Past weeks
Flag for USA

Past Weather in Yonkers, New York, USA — Yesterday and Last 2 Weeks

Now
85 °F

Sunny.


Feels Like: 83 °F
Forecast: 84 / 65 °F
Wind: N/A

Location: Teterboro Airport

Current Time: Jun 24, 2019 at 4:04:39 pm

Latest Report: Jun 24, 2019 at 2:51 pm


Visibility: 10 mi

Pressure: 29.84 "Hg

Humidity: 34%

Dew Point: 53 °F

Location of YonkersLocation

Past Weather in Yonkers — Graph

°F

Yonkers Temperature Yesterday

Maximum temperature yesterday: 85 °F (at 3:51 pm)
Minimum temperature yesterday: 61 °F (at 3:51 am)
Average temperature yesterday: 75 °F

High & Low Weather Summary for the Past Weeks

 TemperatureHumidityPressure
High87 °F (Jun 24, 1:51 pm)97% (Jun 20, 5:51 am)30.29 "Hg (Jun 20, 5:51 am)
Low54 °F (Jun 15, 5:51 am)28% (Jun 22, 4:51 pm)29.42 "Hg (Jun 21, 3:51 am)
Average70 °F67%29.89 "Hg
* Reported Jun 9 1:51 pm — Jun 24 1:51 pm, Yonkers. Weather by CustomWeather, © 2019

Note: Actual official high and low records may vary slightly from our data, if they occured in-between our weather recording intervals... More about our weather records

Advertising

Yonkers Weather History for the Previous 24 Hours

Scroll right to see more
 ConditionsComfort  
Time TempWeatherWind HumidityBarometerVisibility
1:51 pm
Mon, Jun 24
87 °FSunny.3 mph33%29.84 "Hg10 mi
12:51 pm84 °FSunny.5 mph33%29.85 "Hg10 mi
11:51 am84 °FSunny.9 mph36%29.86 "Hg10 mi
10:51 am85 °FSunny.5 mph34%29.87 "Hg10 mi
9:51 am79 °FSunny.No wind42%29.88 "Hg10 mi
8:51 am76 °FSunny.No wind48%29.88 "Hg10 mi
7:51 am73 °FSunny.No wind55%29.89 "Hg10 mi
6:51 am68 °FSunny.5 mph68%29.88 "Hg10 mi
5:51 am64 °FSunny.No wind75%29.86 "Hg10 mi
4:51 am63 °FClear.3 mph78%29.86 "Hg10 mi
3:51 am66 °FClear.No wind68%29.86 "Hg10 mi
2:51 am68 °FClear.No wind63%29.87 "Hg10 mi
1:51 am69 °FClear.3 mph61%29.87 "Hg10 mi
12:51 am71 °FClear.3 mph57%29.87 "Hg10 mi
11:51 pm
Sun, Jun 23
72 °FClear.6 mph55%29.87 "Hg10 mi
10:51 pm75 °FClear.10 mph48%29.86 "Hg10 mi
9:51 pm76 °FClear.9 mph47%29.86 "Hg10 mi
8:51 pm78 °FClear.6 mph43%29.85 "Hg10 mi
7:51 pm81 °FSunny.9 mph38%29.85 "Hg10 mi
6:51 pm83 °FSunny.10 mph36%29.87 "Hg10 mi
5:51 pm85 °FSunny.10 mph32%29.88 "Hg10 mi
4:51 pm84 °FSunny.7 mph35%29.88 "Hg10 mi
Weather by CustomWeather, © 2019

See weather overview